Location: Bouchavesnes-Bergen
(49.9859°N, 2.9203°E)
Time: 22:08:38
(UTC+00:00)

COSMOS 2487 - Pass Details

Date: 09 March 2021
Orbit: 433 x 436 km, 74.7° (Epoch: 13 April)

Event Time Altitude Azimuth Distance (km) Brightness Sun altitude
Exits shadow 05:25:34 12° 279° (W) 1,452 4.3 -8.7°
Maximum altitude 05:27:05 15° 308° (NW) 1,302 4.3 -8.5°
Drops below altitude 10° 05:29:04 10° 344° (NNW) 1,556 5.0 -8.2°
Sets 05:31:53 0° 9° (N) 2,432 6.3 -7.7°
